Temp
11 11 12 12 12 13 13 13 13 13 14 14 13 13 15 18 20 24 27 26 24 25 24 24 25 25 25 27 27 28 28 28 29 30 31 31 32 32 32 32 32 32 32 32 31 31 30 30 31 31 32 33 33 34 34 33 35 36 34 33 34 34 31 26 24 28 31 33 34 34 35 35 33 32 33 32 31 30 28 26 25 23 22 23 22 21 24
11 11 11 12 12 13 13 13 12 12 11 10 11 13 15 15 16 20 25 25 25 24 24 24 25 25 26 27 27 28 29 29 30 30 30 31 32 32 32 32 32 32 32 32 32 31 29 29 32 32 32 33 34 34 34 34 34 35 34 35 33 31 29 26 23 24 26 28 30 30 31 33 32 32 33 33 33 32 30 27 26 24 22 23 22 21 24
11 11 11 11 12 13 12 12 12 12 10 10 11 11 12 14 16 19 22 25 25 25 25 25 24 25 25 25 26 27 29 30 30 30 31 31 32 32 32 32 32 32 31 31 32 31 30 29 31 32 32 33 34 34 34 34 34 34 34 36 35 31 30 28 23 22 23 23 24 25 27 30 31 32 33 33 33 31 29 26 24 23 22 23 22 22 24
11 11 11 11 12 12 12 12 12 11 11 11 10 10 12 17 19 20 22 23 24 24 24 24 23 23 23 24 25 26 27 29 30 30 30 30 31 32 32 32 31 31 31 30 31 31 31 30 31 32 32 32 33 34 33 34 34 34 34 34 35 33 31 30 27 24 24 24 25 29 30 28 28 29 32 32 32 32 30 25 23 23 23 22 23 24 24
11 11 11 11 12 12 12 12 12 12 11 11 10 10 13 16 19 20 20 21 22 22 22 22 21 22 23 23 25 26 26 27 28 30 30 29 30 31 31 32 31 30 31 30 29 30 31 30 30 31 31 31 31 32 33 33 32 32 33 34 34 32 29 30 30 28 29 30 31 33 33 29 28 29 30 32 32 32 29 25 25 25 23 21 24 25 24
11 11 11 11 11 11 11 11 11 12 12 12 12 13 14 17 19 20 19 19 21 20 20 21 21 22 23 24 25 25 25 26 27 29 29 29 30 30 29 30 31 31 31 29 29 29 29 29 30 30 29 29 29 30 32 31 30 30 32 33 34 31 28 29 31 30 31 32 32 33 33 32 32 31 30 32 33 31 29 27 27 27 24 23 25 26 25
11 10 10 10 10 10 10 10 10 12 12 12 12 14 16 17 18 18 18 19 19 19 19 20 21 22 23 23 24 25 25 26 27 28 29 28 29 29 28 29 30 30 30 29 29 29 27 27 29 29 28 27 28 29 29 30 30 29 30 32 33 31 28 31 32 29 30 33 32 33 33 31 31 32 32 33 32 31 31 29 29 29 27 27 27 26 26
10 10 10 9 9 8 9 9 9 11 12 12 12 13 15 15 15 16 16 17 17 18 19 20 20 21 22 23 24 25 25 26 26 27 28 28 28 29 28 28 28 28 29 29 29 29 28 27 28 28 28 27 28 28 28 28 29 29 29 31 32 30 28 32 33 27 27 31 33 33 33 31 29 30 32 33 32 32 32 30 29 29 27 28 27 25 26
10 10 9 9 8 8 8 9 9 10 11 11 11 12 13 12 13 14 14 15 17 18 19 20 20 20 21 23 24 25 25 25 24 25 27 28 28 28 28 28 28 28 29 28 28 28 28 28 28 28 28 28 28 28 28 29 29 29 29 30 31 30 29 31 31 25 24 29 31 30 31 30 27 27 30 31 31 31 31 31 31 29 26 25 25 24 26
9 9 9 8 8 8 8 8 8 9 10 9 9 10 11 11 12 13 14 15 17 18 19 19 19 20 22 23 24 24 24 24 24 24 25 26 27 27 27 27 28 28 27 27 27 28 29 28 28 28 29 29 29 29 29 29 29 29 29 29 30 30 29 28 27 23 23 28 30 29 29 26 24 27 30 32 32 31 31 31 31 30 27 26 25 25 27
9 9 9 8 8 8 8 8 8 8 8 8 8 9 10 10 10 11 13 15 17 18 19 19 19 20 22 22 22 22 23 24 24 23 23 25 26 26 27 27 27 27 27 27 28 29 29 29 29 29 29 29 29 29 29 30 29 29 29 29 30 30 28 28 27 24 23 27 29 28 25 22 24 30 33 33 33 32 31 30 29 29 28 28 27 27 27
9 9 8 8 8 8 8 8 8 8 8 8 8 8 9 10 10 10 12 14 15 17 17 18 19 20 20 21 21 21 22 22 23 23 23 24 25 26 27 27 26 26 27 28 28 29 28 28 29 29 28 28 29 29 29 29 30 30 30 29 30 29 28 28 28 25 23 26 26 23 21 24 28 32 33 31 31 31 30 28 28 29 28 28 27 26 26
9 8 8 8 8 8 8 8 7 7 8 8 8 8 9 9 10 11 12 12 14 15 16 16 18 19 19 19 20 20 21 22 23 24 24 24 25 25 26 26 25 25 26 27 28 28 27 27 27 27 27 28 28 29 29 29 29 30 30 30 30 29 28 28 27 26 24 24 23 22 23 28 31 33 33 31 30 30 29 27 27 28 28 27 27 26 26
8 8 7 8 8 8 8 8 7 8 8 8 8 9 9 9 10 11 12 12 13 14 15 16 17 17 17 18 19 19 20 21 21 22 23 23 24 25 25 25 25 26 27 27 28 27 26 25 25 24 25 26 26 27 28 29 29 30 30 31 30 29 29 27 26 25 25 22 21 23 24 26 29 31 33 33 32 32 30 27 26 28 27 26 26 25 25
8 7 7 7 8 8 8 8 8 8 8 8 8 9 9 9 10 10 11 12 12 13 15 15 15 16 16 17 18 18 18 19 19 20 22 23 24 24 24 24 25 26 27 27 27 26 25 24 23 21 22 23 23 23 26 27 29 30 30 30 31 30 29 28 25 24 25 23 22 23 22 22 26 30 32 33 33 33 32 28 26 28 28 26 26 26 25
7 7 7 8 8 8 8 8 8 7 8 8 8 9 9 10 10 10 11 11 12 13 15 15 15 15 16 16 17 18 17 17 18 18 20 22 23 23 23 23 25 26 26 26 26 26 25 23 22 21 22 23 22 22 24 25 26 28 30 30 30 29 29 29 26 24 24 23 22 22 22 23 27 31 32 32 32 33 32 27 25 27 28 26 26 26 25
7 8 8 8 8 8 8 8 7 7 7 8 8 8 9 10 9 9 10 11 11 13 14 14 14 15 15 16 16 17 17 17 17 18 19 20 21 21 21 22 24 25 25 25 25 25 24 23 22 22 22 24 24 22 23 23 23 25 27 27 28 28 28 27 25 23 23 23 22 22 23 25 29 31 31 31 32 33 30 23 23 27 28 26 27 26 25
8 7 7 7 8 8 8 7 8 7 7 7 8 8 9 10 9 9 10 11 11 12 13 14 13 13 14 15 15 16 16 17 17 17 18 19 20 19 20 21 23 24 24 24 23 24 23 23 23 22 22 25 25 23 23 23 22 23 24 25 25 26 26 25 24 23 23 23 22 22 24 28 31 32 32 32 32 29 26 23 26 28 27 26 27 26 25
7 7 7 7 7 7 7 7 8 7 7 7 8 8 9 10 10 10 10 10 10 11 12 13 13 13 14 15 15 15 16 16 16 16 17 19 19 19 20 22 22 22 23 23 22 22 22 22 24 23 23 24 25 23 22 22 23 23 24 23 23 23 23 24 24 23 23 23 22 22 24 29 32 31 31 32 29 26 25 27 28 28 27 27 27 25 25
7 7 7 7 7 7 7 7 7 7 7 7 7 8 9 10 9 9 9 10 10 10 11 12 12 12 13 14 13 14 14 15 16 16 17 17 18 19 20 21 21 20 21 22 21 21 21 21 22 22 22 22 23 23 22 22 24 24 24 23 23 22 21 22 22 23 23 23 22 21 23 28 31 31 31 31 29 28 28 27 27 27 27 27 26 25 25
7 7 7 7 7 7 7 7 7 7 7 7 7 8 9 10 9 9 9 9 9 10 11 12 12 12 12 13 13 13 13 14 15 16 16 16 17 18 19 19 19 19 20 20 20 21 21 20 20 21 21 21 22 22 21 21 23 24 24 24 23 23 22 21 23 24 23 21 22 23 24 26 29 30 31 31 30 29 28 27 27 27 26 26 26 25 25
7 7 7 7 7 7 7 7 7 7 7 7 7 7 8 9 9 9 9 9 9 10 11 11 12 12 12 12 13 13 13 14 14 15 15 16 17 18 18 18 19 20 20 20 20 20 20 20 20 20 20 21 21 21 21 21 21 23 24 23 23 23 23 22 23 24 24 23 24 25 26 25 26 27 30 30 29 28 28 28 28 27 26 26 26 25 24
7 7 7 7 7 7 7 7 7 7 7 7 7 7 7 8 9 9 9 9 9 9 10 11 11 11 12 13 14 15 15 14 14 15 15 15 16 17 19 19 20 20 20 20 20 20 19 19 20 20 20 20 21 21 21 21 21 22 23 23 23 24 23 23 23 24 24 25 25 25 25 25 25 26 27 28 28 28 28 28 28 27 27 26 26 24 24
7 7 7 7 7 7 7 7 7 7 7 7 7 7 7 7 8 9 8 9 9 9 10 11 11 11 13 14 15 15 15 15 15 15 15 15 16 17 18 20 20 20 20 20 20 20 20 19 20 19 20 20 21 20 20 21 21 22 22 22 23 23 23 23 24 24 24 24 25 25 24 24 25 27 27 28 28 28 28 28 28 28 26 26 25 24 23
7 7 7 7 7 7 7 7 7 7 7 7 7 7 7 7 8 8 8 9 9 9 9 10 11 12 14 14 14 14 15 16 16 16 15 16 16 16 18 20 21 20 20 20 20 20 20 19 19 19 20 20 21 21 20 21 21 22 22 22 23 23 23 23 23 23 24 24 24 24 24 24 24 26 27 27 27 27 28 28 28 27 25 25 24 24 24
7 7 7 7 7 7 7 7 7 7 7 7 7 7 7 7 8 8 8 8 8 9 9 10 11 13 14 13 14 15 15 16 17 17 16 17 17 17 18 19 20 20 20 21 21 20 20 20 19 19 19 20 21 21 21 21 21 21 21 22 23 23 23 23 23 23 24 24 23 23 25 26 25 25 26 26 26 27 27 26 26 26 25 24 24 24 24
6 6 6 7 7 7 7 7 7 7 7 7 7 7 7 8 9 9 8 8 8 9 10 10 11 12 12 12 13 15 16 16 17 17 18 18 18 18 19 19 19 20 20 20 20 20 19 19 19 19 20 20 21 21 21 21 21 21 21 22 23 22 22 22 23 23 24 25 24 24 25 26 25 25 26 26 26 27 27 26 26 25 25 24 24 24 24
7 7 7 7 7 7 7 7 7 7 7 7 7 8 8 9 9 9 8 8 8 9 9 9 10 10 11 13 14 15 16 17 18 18 18 19 19 19 19 19 19 19 19 19 19 20 19 19 20 20 21 21 21 20 20 20 20 20 21 22 23 23 23 22 23 23 24 25 25 23 24 25 25 24 25 25 26 27 26 26 25 25 24 25 25 24 24
7 6 6 6 6 6 7 7 7 7 7 7 8 8 9 9 9 9 8 8 8 8 8 9 10 11 12 13 14 15 17 18 18 18 19 20 20 20 19 20 19 19 19 19 19 19 19 19 20 21 21 21 21 20 20 20 20 20 21 22 22 23 23 23 23 23 24 25 24 23 24 25 25 25 24 25 25 26 26 25 25 25 25 24 25 24 24
7 6 6 6 6 6 6 6 6 6 7 7 7 8 9 9 9 9 9 9 8 8 9 9 10 11 12 13 13 14 16 17 17 18 19 20 20 20 20 20 20 20 20 20 19 19 19 20 20 21 22 22 21 20 20 20 20 21 22 23 22 23 23 23 22 22 23 24 24 23 24 24 25 24 24 24 25 26 26 25 25 25 24 24 24 24 23
7 6 6 6 6 6 6 6 6 6 6 7 7 8 9 10 9 9 9 9 9 9 9 9 10 11 12 13 14 15 16 17 17 18 19 20 21 21 21 21 20 19 20 20 19 19 19 20 20 21 22 21 21 20 20 20 20 21 23 23 23 22 23 23 22 22 22 23 23 24 24 24 24 25 25 24 24 25 25 24 24 23 22 22 23 22 22
7 6 6 6 6 6 6 7 6 6 6 6 7 8 9 10 10 10 10 9 8 8 9 9 10 11 12 14 15 16 17 18 18 19 19 20 20 20 21 21 20 20 20 20 19 19 20 20 20 20 21 21 21 20 20 20 20 21 23 24 23 22 22 22 22 22 22 22 23 24 24 24 24 24 24 23 23 24 24 23 22 20 20 20 20 20 21
7 6 6 6 6 7 7 7 7 7 7 7 8 8 10 10 10 10 10 9 8 8 9 10 10 11 12 13 15 17 18 19 19 19 20 21 20 20 20 20 20 20 20 20 19 20 20 20 20 20 20 21 21 21 20 20 21 21 23 24 23 21 21 21 22 22 22 22 22 23 24 24 23 22 22 22 22 22 22 22 21 20 21 21 22 21 21
6 6 6 7 7 7 7 8 7 7 8 8 8 9 10 10 10 10 10 9 9 9 9 10 10 11 13 14 15 17 19 19 19 20 20 20 20 20 20 20 20 20 19 19 19 20 20 20 20 20 20 21 21 21 20 21 22 22 23 23 22 21 21 21 22 22 23 23 22 23 23 23 23 22 21 21 21 20 21 21 22 22 22 22 22 22 21
6 7 7 8 8 8 8 8 8 8 8 8 9 10 10 10 10 11 10 10 10 9 10 11 11 11 12 13 14 16 18 19 19 20 20 20 20 20 20 20 19 19 19 19 19 19 20 20 21 20 20 21 21 20 20 21 22 23 23 23 22 21 21 21 22 23 23 23 24 24 23 23 23 23 21 20 19 21 22 22 22 22 22 22 22 21 22
7 7 8 9 9 9 9 9 9 8 8 9 9 10 10 10 10 11 10 10 10 10 10 11 11 11 12 12 13 15 17 18 18 19 20 20 20 21 21 20 19 19 20 20 19 19 20 21 21 20 20 20 20 20 21 22 22 22 23 23 22 22 22 22 23 24 23 23 24 24 23 23 23 22 21 20 20 21 22 22 22 22 22 22 22 22 22
8 8 8 9 9 9 9 10 9 9 9 9 10 10 10 10 10 10 10 10 10 10 10 10 10 11 12 12 13 15 16 17 17 19 19 18 19 20 20 20 20 20 19 19 19 20 20 21 20 20 20 20 21 22 23 22 22 22 23 22 22 22 22 23 23 23 23 23 23 23 23 23 22 22 22 21 20 21 22 23 23 23 23 22 22 21 20
8 8 8 9 9 9 10 10 10 9 10 10 10 10 10 10 10 10 10 10 10 10 10 10 10 11 12 12 12 15 16 16 17 18 18 16 17 19 20 20 20 20 20 19 20 21 21 21 20 20 20 21 22 23 22 22 22 22 22 22 23 22 22 23 23 23 23 23 23 23 23 23 23 22 22 22 21 22 23 23 22 22 22 22 21 19 18
8 8 9 9 9 9 10 10 10 10 10 10 10 10 10 11 10 10 11 11 11 11 11 10 11 11 11 11 12 14 16 16 16 17 17 16 16 18 19 19 20 21 20 20 21 21 20 20 20 20 20 21 22 22 22 21 21 21 21 22 23 23 23 23 23 23 23 23 23 23 24 23 23 23 23 23 22 22 21 21 21 21 20 19 18 17 18
8 8 9 9 9 9 10 10 10 10 10 10 10 10 11 11 11 11 12 12 12 12 12 11 12 12 12 12 13 15 16 16 17 18 18 16 16 17 18 18 19 20 19 20 21 21 20 20 21 20 20 21 21 21 20 20 21 21 21 22 23 23 23 23 23 23 23 23 23 23 23 23 24 24 23 23 22 22 21 20 19 18 17 17 17 17 18
8 8 8 8 8 9 9 10 10 10 10 10 10 10 11 11 11 12 12 12 13 14 14 13 14 14 14 14 14 14 16 18 18 19 19 17 16 16 17 18 19 19 19 20 21 21 21 21 20 20 20 20 20 19 19 20 21 21 21 22 22 22 22 23 22 21 22 23 23 23 22 22 23 24 23 22 22 23 22 21 19 17 17 18 18 18 18
7 7 8 8 8 8 9 9 9 10 10 10 10 11 11 11 12 13 13 13 14 16 15 15 15 15 16 16 15 15 17 19 19 19 18 18 16 15 17 18 19 19 19 20 21 21 21 20 19 19 19 19 19 18 19 20 20 20 20 21 21 21 22 22 22 21 21 22 23 22 21 20 20 21 22 21 21 21 21 20 19 18 18 19 19 18 17
8 8 8 8 8 9 9 9 10 10 10 10 11 11 11 12 13 13 14 15 16 16 15 15 15 15 16 17 16 16 18 19 19 18 18 18 16 16 17 18 18 19 20 21 21 20 20 19 19 19 19 19 18 18 19 19 19 20 20 20 19 19 19 20 20 20 19 20 21 21 21 20 20 21 22 22 21 21 20 20 21 20 20 20 19 18 17
8 8 8 8 9 9 10 10 10 11 10 11 11 11 12 12 13 14 14 15 15 15 15 15 15 15 15 16 16 16 17 18 18 18 18 18 18 17 17 18 19 19 20 20 19 19 19 19 18 18 18 18 18 18 18 18 19 19 19 19 19 18 18 18 18 19 19 19 19 19 20 20 20 21 22 22 22 21 20 20 20 21 21 20 19 18 17
8 8 8 9 9 10 10 10 10 10 11 11 11 12 13 13 14 14 15 15 15 15 15 16 15 15 15 15 16 16 17 17 17 18 18 18 18 18 18 18 19 19 19 18 18 18 18 18 18 17 17 17 18 18 18 18 18 18 19 19 19 18 18 18 18 19 19 19 18 18 19 19 18 18 20 22 22 22 20 19 20 20 20 19 18 17 17
8 8 9 9 9 10 10 10 10 10 11 12 13 13 14 14 15 15 16 17 16 16 16 16 15 15 15 15 16 16 16 16 17 18 19 18 18 18 19 19 19 19 19 18 17 17 18 18 18 17 17 17 18 18 18 18 18 18 19 19 19 18 18 18 18 18 19 18 17 17 18 18 18 18 19 21 21 21 20 20 20 20 20 19 18 17 17
8 9 9 9 9 10 10 10 11 12 13 14 14 14 15 16 16 16 17 17 17 16 16 16 15 14 14 14 15 15 16 16 17 18 19 19 18 18 19 18 17 17 18 18 18 18 18 18 17 16 16 17 18 18 18 18 18 18 18 18 19 18 18 18 19 19 18 18 18 18 17 18 18 19 19 19 20 20 20 20 20 20 20 20 19 18 18
8 9 9 9 9 10 11 11 12 13 13 14 14 15 15 16 16 16 17 17 17 16 16 16 15 15 15 14 14 15 16 16 16 17 19 19 18 18 18 17 16 16 16 16 17 17 17 16 16 16 16 17 18 18 18 18 19 19 19 19 19 19 19 19 19 18 18 18 18 18 17 18 18 19 19 18 18 19 19 19 19 20 20 19 19 19 18
8 8 9 9 10 10 12 12 12 13 13 14 15 15 16 16 16 16 16 17 16 16 16 16 15 15 15 15 15 15 16 16 16 17 18 18 18 18 17 17 17 17 16 16 17 17 17 16 16 17 18 18 18 18 19 19 19 19 19 19 18 18 18 19 18 18 18 18 18 18 18 18 19 18 18 17 17 18 18 18 18 18 19 19 19 18 18
8 8 9 9 9 10 12 12 12 12 13 14 14 15 15 16 16 16 16 16 16 16 16 16 16 15 16 16 15 15 15 15 15 16 17 17 17 18 18 17 17 17 17 17 17 18 18 18 18 18 18 18 18 19 19 19 19 19 19 18 17 17 17 18 18 17 18 19 19 19 19 19 18 18 17 17 17 18 18 17 17 17 18 18 18 18 17
8 8 9 9 10 10 11 11 11 12 12 12 13 14 14 15 15 16 16 16 16 15 15 15 15 15 15 15 15 15 15 14 14 15 16 16 16 17 17 17 17 17 17 17 17 18 18 18 18 18 18 18 19 19 19 19 19 19 18 17 17 17 17 17 18 18 19 20 20 19 19 19 18 18 17 17 17 17 17 17 17 17 17 17 18 18 17
8 9 10 10 10 10 10 11 11 11 12 12 13 14 15 15 16 16 16 16 16 15 15 15 15 15 14 14 15 15 15 15 15 16 16 16 16 16 16 17 17 18 17 16 16 18 19 19 18 18 18 18 19 19 19 19 20 19 18 17 17 17 17 17 18 19 20 20 20 20 19 18 18 17 17 16 16 17 16 16 17 17 17 17 17 17 17
Height
822 820 819 818 815 813 810 807 804 800 795 792 790 789 787 787 781 764 756 759 758 766 777 774 770 771 765 759 756 752 751 750 746 741 738 737 734 733 735 736 738 740 737 738 742 743 745 744 741 741 738 731 724 716 711 713 711 711 721 723 714 719 736 749 752 746 738 730 723 722 720 723 734 739 737 742 747 746 754 765 770 780 789 788 798 810 792
821 820 819 817 815 813 810 808 806 802 800 798 796 794 792 791 783 766 757 757 757 769 779 775 773 770 762 760 757 750 747 746 744 743 740 737 735 737 737 734 736 737 735 736 740 741 746 745 736 735 738 728 715 711 711 712 714 714 715 714 715 727 742 750 759 764 759 751 745 739 732 732 740 743 738 738 739 741 750 757 763 779 787 783 794 806 789
821 819 818 816 815 813 810 809 807 804 803 801 799 799 796 791 784 770 760 756 758 766 769 769 774 772 767 767 762 755 748 741 738 739 737 732 732 735 734 731 732 733 734 738 737 736 742 744 736 732 733 725 712 709 711 711 712 709 705 700 706 726 740 744 760 777 780 777 770 759 748 742 742 742 739 738 739 743 752 760 769 782 785 779 784 792 783
820 819 817 816 814 813 810 809 807 805 804 801 800 800 797 792 786 777 767 760 760 764 763 767 774 774 774 773 764 759 757 745 735 734 735 732 729 730 730 728 731 734 736 741 742 737 736 738 737 735 734 728 717 711 711 711 709 707 704 699 704 724 735 736 747 759 763 762 757 747 743 746 748 745 740 739 741 742 747 760 768 773 780 782 777 776 778
819 818 817 815 814 812 810 808 807 805 803 801 800 798 797 796 790 784 781 774 769 768 767 771 776 774 775 775 766 761 761 753 742 736 735 734 731 731 730 729 735 739 738 743 745 740 737 738 738 737 735 731 725 716 713 714 713 712 709 705 711 727 735 734 736 740 742 742 740 735 737 743 745 744 741 739 739 742 748 757 759 763 780 788 774 767 773
819 817 816 815 813 812 810 808 806 804 803 801 800 798 796 794 788 783 785 786 781 779 776 775 776 773 772 771 766 763 762 758 752 743 737 734 733 737 740 736 736 736 736 742 745 741 742 741 738 738 738 738 734 726 720 719 718 718 716 711 713 728 736 732 731 734 734 735 736 733 734 738 738 739 740 736 736 741 746 751 753 756 767 771 765 764 768
818 817 816 814 813 811 809 808 806 803 802 800 799 798 794 791 789 784 784 786 785 783 780 777 776 774 773 770 766 764 763 759 753 745 741 741 736 739 748 744 738 736 735 739 744 743 745 745 741 740 742 742 741 739 735 728 720 722 726 718 715 727 734 730 729 734 734 732 734 733 733 737 737 736 736 734 736 739 740 745 749 748 750 751 755 764 763
817 816 815 813 812 811 809 808 806 803 802 800 799 799 796 796 796 793 790 789 785 782 779 777 778 776 774 772 767 762 761 759 753 745 745 748 742 738 745 744 739 739 736 737 742 740 739 742 741 739 741 742 742 744 745 738 729 728 732 727 721 727 735 728 725 736 740 732 731 733 735 739 741 739 735 733 735 736 737 742 745 747 751 752 756 767 766
816 815 815 813 812 812 810 808 807 804 803 801 800 801 800 799 798 797 797 793 785 782 779 777 781 780 774 771 766 761 760 759 757 751 743 743 745 741 742 742 738 737 736 738 741 736 733 737 737 734 736 738 737 738 738 738 737 736 736 733 729 731 737 730 729 743 746 734 733 737 736 739 745 744 740 737 737 738 738 739 739 742 752 761 767 771 765
816 814 814 813 812 811 810 809 808 805 804 803 803 803 801 800 798 795 797 794 785 782 781 779 782 780 771 767 764 763 762 757 758 759 747 739 742 741 740 740 738 740 742 742 740 733 728 729 727 725 727 727 728 731 731 731 736 739 739 738 735 736 740 738 739 749 746 735 735 736 739 753 758 745 736 735 734 735 736 735 734 736 744 758 765 760 753
815 814 814 813 812 812 810 809 808 807 806 805 805 805 804 803 802 798 798 796 786 781 781 781 781 775 767 766 765 764 763 758 758 763 758 746 741 741 739 738 739 742 742 736 730 725 723 721 719 719 722 724 724 726 727 727 730 733 736 738 738 738 742 743 743 748 748 738 733 739 755 770 761 735 723 726 727 730 735 738 738 737 738 742 746 747 749
814 814 813 813 812 812 810 810 809 807 808 807 806 807 805 804 805 802 800 799 790 783 784 782 778 773 769 768 768 766 764 761 757 757 757 750 744 742 739 738 743 743 735 726 723 723 724 724 722 722 723 724 724 723 726 728 727 725 728 734 738 739 742 743 741 745 749 741 741 760 774 763 739 722 718 722 724 726 734 740 740 737 736 738 743 749 751
814 813 813 812 812 812 810 810 810 808 808 808 806 806 805 804 805 802 801 801 795 788 787 784 777 775 774 771 770 768 763 760 756 752 752 750 746 744 741 740 744 740 729 723 723 727 733 736 734 733 730 726 725 725 726 728 726 723 723 726 731 737 741 742 741 744 750 751 756 769 765 741 725 723 719 720 726 728 735 746 745 738 737 740 748 753 752
814 813 813 812 812 811 811 810 809 809 808 807 806 805 805 804 804 803 801 801 797 789 788 787 780 778 778 774 771 769 764 760 758 755 752 750 747 744 742 740 738 732 725 724 726 732 740 744 746 747 742 737 738 737 732 727 724 723 722 721 723 731 738 743 746 747 750 758 761 758 752 742 735 729 721 718 724 725 731 746 750 740 736 739 746 753 754
814 813 813 813 811 811 811 810 809 808 807 807 806 805 804 803 804 803 801 801 799 792 788 787 784 782 781 777 773 772 770 767 765 760 754 749 746 743 741 737 733 728 724 726 731 737 742 749 758 763 758 754 756 754 743 734 727 720 719 719 718 723 731 738 747 749 747 755 761 761 765 761 743 729 719 712 714 715 720 739 751 744 737 737 741 749 753
814 814 813 813 812 811 811 810 809 808 807 807 805 804 804 803 803 802 800 800 801 793 784 782 783 783 781 778 774 774 775 773 771 766 759 753 748 744 740 735 731 728 726 729 733 737 744 753 760 764 762 758 760 760 752 747 741 727 719 720 719 722 726 730 742 749 747 753 764 768 769 759 738 726 718 711 711 710 717 744 759 748 738 738 739 744 750
814 814 813 812 812 811 810 810 809 808 807 806 805 804 803 802 802 803 801 800 801 792 781 780 783 783 782 781 778 776 776 773 771 771 768 760 753 748 742 736 732 729 729 733 737 739 746 755 757 760 760 752 752 759 756 754 754 745 734 731 728 728 732 735 743 749 747 750 759 760 755 744 728 720 716 711 708 709 730 763 766 744 737 739 736 741 747
814 813 813 812 811 811 810 809 809 808 807 806 805 804 803 802 802 802 800 801 801 793 782 781 785 785 783 783 780 777 775 774 773 774 770 761 756 756 751 744 739 735 732 737 744 746 750 753 753 758 760 747 744 755 759 757 760 756 748 743 738 735 739 741 744 748 746 748 755 754 746 733 720 715 712 707 710 725 749 762 748 733 737 738 733 738 744
814 813 812 812 811 810 810 809 808 807 807 806 804 803 802 802 802 802 801 801 800 793 784 782 785 785 782 781 779 777 776 775 775 775 773 766 760 756 750 744 743 743 740 741 749 754 757 757 751 750 755 751 746 754 760 759 756 754 752 751 748 749 750 747 745 747 746 746 750 753 746 725 710 711 708 707 723 743 747 736 725 726 734 734 733 737 740
813 813 812 811 811 810 809 809 808 807 806 805 804 803 802 801 801 801 801 800 798 793 785 783 784 782 781 781 781 780 779 778 775 775 776 772 763 757 756 754 751 751 750 750 756 760 763 766 759 753 757 758 753 754 760 759 753 750 752 753 752 755 759 757 751 748 747 747 751 758 751 725 706 710 714 714 726 734 727 721 724 725 726 730 735 736 736
813 812 811 811 810 810 809 808 808 807 806 805 804 803 802 801 801 801 800 799 799 794 785 781 781 781 780 780 779 780 781 778 776 776 776 772 766 764 769 767 761 759 757 758 762 763 762 766 765 759 758 758 755 756 763 764 757 749 745 748 751 753 758 761 755 746 747 752 750 745 738 721 708 711 715 713 713 713 712 718 726 726 726 730 734 734 734
812 812 811 811 810 809 809 808 807 807 806 805 804 803 802 800 800 800 799 797 797 793 786 781 780 777 776 775 775 775 775 772 772 774 775 772 768 765 766 764 761 759 756 756 761 763 762 764 764 763 763 761 759 759 762 765 764 754 745 748 753 750 749 753 752 744 742 744 738 728 723 718 712 708 707 706 706 707 708 713 720 725 727 726 729 733 735
812 811 811 811 810 809 809 808 807 806 805 804 804 802 801 800 799 799 798 796 793 790 783 779 778 774 771 769 769 769 768 768 768 768 770 772 770 764 761 760 758 756 753 755 759 761 763 763 762 763 765 763 760 763 763 762 763 758 750 749 748 743 740 744 746 741 736 733 729 725 722 718 711 706 705 705 706 708 709 711 716 721 721 721 725 730 733
812 811 811 810 810 809 808 807 806 806 804 804 803 801 800 800 799 798 797 795 793 789 782 777 775 773 768 765 765 765 764 764 764 762 764 768 770 765 760 755 754 755 756 755 753 755 759 761 760 763 765 760 758 764 767 764 760 756 754 752 747 741 740 742 742 742 741 737 729 724 723 720 712 706 704 704 706 708 710 712 714 716 717 720 722 725 729
811 811 811 810 809 808 808 807 806 805 803 803 802 801 799 798 798 799 798 796 795 793 788 780 772 768 766 764 762 762 760 759 759 760 760 762 763 762 759 753 752 755 755 753 751 753 758 760 761 764 765 758 756 761 765 763 757 754 756 757 751 743 741 743 745 744 742 739 733 725 723 720 715 710 707 706 707 709 710 712 713 715 718 720 721 723 728
811 811 810 809 808 808 807 806 805 804 803 802 800 799 798 797 797 797 797 796 795 793 790 782 770 764 765 763 758 756 755 755 755 755 756 756 755 756 755 753 752 752 752 751 752 755 758 759 761 765 765 758 754 757 759 756 753 753 754 752 746 743 743 745 746 746 742 739 738 732 725 721 718 715 711 708 707 708 710 714 716 717 720 722 722 724 725
811 810 810 809 808 807 806 805 804 803 802 800 799 798 797 795 795 795 795 797 796 792 788 783 772 764 763 760 754 751 751 751 751 751 751 751 751 752 753 753 752 752 752 754 754 755 758 760 760 761 760 755 752 753 753 750 751 754 754 747 741 744 748 746 747 750 746 739 736 734 732 730 727 721 715 711 708 707 711 715 718 720 722 723 725 727 728
810 809 809 808 807 806 805 804 803 802 801 799 797 796 795 793 793 793 793 795 796 793 791 786 776 768 762 755 749 748 748 747 746 747 747 746 747 748 749 749 750 751 752 755 756 756 758 760 758 755 753 751 751 753 752 751 754 757 754 746 740 742 745 744 747 749 743 733 729 730 733 732 727 722 718 715 709 708 711 716 719 721 722 722 724 729 732
809 808 808 807 806 805 804 803 802 801 800 799 796 794 793 792 791 792 792 793 795 794 791 787 778 769 762 754 746 744 745 744 744 745 745 744 743 744 746 747 748 750 750 753 755 757 757 755 752 750 747 746 751 755 754 756 759 755 746 740 737 736 736 737 741 742 737 730 727 728 728 726 722 719 718 715 711 710 712 715 718 721 722 722 724 727 730
808 808 807 806 805 804 803 802 802 800 799 798 796 794 793 792 792 793 792 793 794 793 791 789 780 770 762 755 749 745 743 743 744 743 742 741 740 741 743 744 745 746 748 750 752 754 754 751 748 746 743 741 748 755 756 756 757 748 737 734 735 733 732 733 735 736 734 730 727 727 726 724 720 717 716 715 712 711 713 716 718 720 721 722 724 727 729
808 807 806 805 804 804 802 802 801 800 799 798 797 796 795 794 793 793 793 793 793 792 791 789 782 772 763 755 749 746 743 741 741 741 739 738 738 739 740 741 743 744 747 749 750 750 751 750 748 746 742 741 746 752 753 754 754 745 735 731 732 731 730 730 730 732 732 730 728 727 726 724 722 720 720 719 716 714 715 717 719 720 721 723 725 727 729
807 806 805 804 803 802 801 801 800 799 799 798 798 797 795 793 793 792 792 793 793 792 792 789 783 775 767 756 747 743 740 738 737 737 736 735 736 738 738 740 742 742 743 747 750 750 748 747 748 746 743 741 744 747 749 751 751 743 733 730 730 730 730 729 729 729 730 729 729 730 730 727 725 724 724 722 720 718 719 720 720 721 723 725 727 728 730
806 804 803 803 801 800 800 799 798 798 797 796 795 794 792 792 792 791 791 791 792 792 792 790 785 779 770 759 749 741 738 737 736 736 736 734 734 737 739 739 740 741 742 745 748 747 743 743 745 745 742 739 741 745 747 745 741 735 731 729 729 729 728 728 728 729 729 728 729 731 731 728 725 724 724 723 723 722 722 722 723 723 724 727 730 731 733
804 802 802 801 799 799 798 797 796 796 795 794 793 792 791 791 790 789 790 790 790 790 789 788 787 781 771 762 754 744 739 738 737 735 736 735 733 736 739 739 740 742 743 743 744 744 742 741 742 744 742 739 740 745 745 739 733 730 729 728 727 728 728 728 728 728 729 728 727 727 726 725 724 725 726 727 728 727 725 725 725 727 729 731 732 733 734
802 801 800 799 797 797 796 795 795 795 794 793 792 790 790 791 789 789 789 788 789 791 789 786 786 783 776 770 762 748 739 739 738 736 735 735 733 734 737 740 744 745 743 741 742 744 741 739 741 743 742 740 742 744 741 734 730 728 728 727 726 728 729 729 728 727 726 726 724 724 724 725 725 727 729 732 733 732 730 729 728 729 732 734 734 733 734
801 800 799 797 796 795 794 793 794 794 793 792 791 789 790 790 788 788 789 787 789 791 789 786 786 784 780 778 770 754 743 743 742 736 734 735 736 735 735 740 744 743 739 739 743 743 738 735 739 743 743 741 742 739 732 728 729 727 726 726 725 725 726 727 726 725 725 725 724 724 725 726 727 728 730 732 733 733 732 731 730 731 733 735 735 734 735
800 799 797 796 795 794 793 793 793 793 792 791 790 788 788 788 787 788 788 787 788 788 788 789 788 782 779 779 772 759 752 751 747 741 740 743 742 738 736 740 743 740 739 741 741 737 734 733 737 742 742 737 734 729 723 723 725 724 722 723 723 722 723 724 723 724 727 728 727 727 726 727 728 728 729 731 732 731 730 730 730 731 733 734 734 735 735
799 798 797 796 795 794 794 794 793 793 792 790 788 788 787 786 787 788 787 787 787 785 786 788 785 779 778 778 771 760 755 754 750 746 746 749 747 740 737 739 738 736 741 742 734 727 731 735 736 739 737 730 724 722 720 720 720 719 719 720 720 720 722 722 722 724 728 730 729 728 727 728 729 728 728 729 730 730 729 729 730 730 731 733 733 734 735
798 797 796 796 795 794 794 793 792 792 790 789 788 788 786 785 787 787 784 784 784 783 783 784 779 774 775 776 767 756 753 755 754 751 750 753 752 746 743 743 737 735 742 742 729 725 734 738 736 736 735 728 722 721 719 717 717 717 717 717 718 718 719 720 721 722 724 725 726 725 725 726 727 727 726 727 727 728 729 729 729 730 731 732 733 734 735
798 797 796 796 795 794 793 792 791 791 790 789 789 789 787 786 787 785 782 782 782 779 778 777 773 768 768 770 765 756 751 752 753 750 749 753 752 749 748 746 740 738 744 742 730 726 734 736 735 736 736 730 724 721 718 717 716 715 715 716 716 717 718 719 720 720 720 721 722 722 722 723 723 723 724 725 726 727 728 729 729 729 730 731 732 733 735
798 798 797 796 795 794 792 791 790 790 790 789 790 789 788 787 784 781 781 782 779 773 769 768 767 764 763 764 764 759 751 746 743 743 745 749 750 750 750 745 738 740 746 741 729 726 730 733 736 737 734 728 725 721 717 715 715 715 715 716 716 716 717 718 719 719 719 720 721 721 721 722 722 722 722 723 724 725 726 727 728 729 728 729 731 733 735
799 798 797 796 795 793 791 791 790 790 790 791 791 790 788 786 782 779 779 778 772 766 764 764 764 762 758 757 758 756 749 743 741 742 745 747 749 750 749 743 740 745 746 735 726 728 733 737 740 740 733 728 727 723 718 717 717 717 717 718 717 718 718 719 720 720 720 721 721 721 721 722 722 722 722 722 723 724 724 724 726 726 726 727 730 733 736
798 797 797 796 794 793 792 792 791 790 791 792 791 789 788 785 780 777 775 771 766 764 765 764 761 759 757 754 753 751 746 742 742 744 746 746 747 749 749 747 745 744 737 728 728 736 740 741 743 740 733 728 726 723 721 720 719 719 719 719 719 719 720 720 721 722 721 721 722 722 722 722 722 722 722 722 721 722 722 722 723 723 724 725 728 731 734
797 796 796 796 794 793 793 792 791 791 792 792 790 787 786 783 779 776 773 770 767 766 765 763 762 763 760 755 753 752 748 744 743 745 745 744 744 748 751 749 744 737 732 733 739 742 741 740 739 737 733 730 727 725 724 724 722 721 722 722 721 721 722 722 723 723 723 723 723 722 722 722 722 722 721 721 720 721 721 720 721 722 722 724 726 729 731
797 797 796 796 795 794 793 793 792 792 791 789 786 784 781 779 777 774 770 767 766 766 764 761 762 763 761 756 754 754 751 748 748 747 745 744 746 747 747 744 739 736 738 744 748 746 743 741 738 736 736 735 730 727 727 726 725 724 724 724 724 724 724 724 725 725 725 724 724 723 723 722 722 721 721 721 720 719 719 719 720 721 722 724 726 728 730
797 796 797 798 797 794 793 793 793 791 786 782 780 778 776 773 771 769 764 761 762 763 762 760 760 762 761 758 756 754 752 751 751 747 743 745 749 747 740 739 741 742 744 748 751 750 746 742 739 738 738 735 730 727 727 726 725 725 725 725 726 726 725 725 725 725 724 724 723 723 722 722 721 721 721 721 720 720 719 719 720 721 721 723 724 726 729
797 795 796 798 798 794 792 791 788 783 779 775 773 772 770 767 765 763 761 760 760 760 759 758 760 761 760 759 759 756 752 752 752 747 742 745 748 744 739 743 750 751 750 751 750 747 742 739 739 741 740 735 731 729 728 727 726 726 726 726 726 727 726 726 726 725 724 724 723 722 722 722 721 721 721 721 720 720 720 720 720 720 720 721 722 724 726
797 796 796 798 797 793 789 785 781 777 775 773 771 768 766 764 763 763 761 759 758 759 759 759 760 761 760 760 761 759 754 753 754 749 742 742 746 747 749 754 757 755 754 754 750 744 741 741 740 738 736 733 731 729 728 727 727 727 727 727 727 727 727 727 726 725 725 724 723 723 722 722 721 721 721 721 721 721 720 720 720 720 720 720 721 722 724
797 797 797 796 794 789 784 781 779 777 774 771 769 767 765 764 764 763 761 759 759 760 759 758 759 760 759 758 759 759 756 755 755 751 746 747 750 751 753 757 757 755 754 752 746 741 739 739 737 734 732 731 730 729 729 729 728 728 727 728 727 726 726 726 725 725 724 724 723 723 723 722 722 722 722 721 721 720 720 721 720 720 720 719 719 720 721
797 797 796 795 793 788 783 780 780 779 775 772 770 768 767 765 764 762 760 759 760 759 758 757 758 759 758 758 760 761 759 758 757 755 753 753 752 749 750 754 756 753 749 745 741 737 735 734 733 733 732 731 730 730 729 729 729 728 727 727 726 725 725 724 724 723 722 722 722 722 721 721 721 721 720 720 720 719 719 720 720 720 720 720 719 719 720
796 795 793 791 790 788 785 783 783 781 778 775 772 770 768 766 765 761 759 758 759 761 762 761 761 761 762 763 764 763 761 760 760 759 757 756 754 752 753 754 752 748 745 743 739 736 734 733 733 733 733 731 731 730 730 729 728 727 727 726 725 725 724 723 722 722 721 721 721 721 721 721 721 721 720 720 720 719 719 719 720 720 720 720 720 720 720
794 793 790 786 785 785 785 784 783 780 777 774 771 769 767 765 763 760 758 759 761 762 763 761 761 764 766 766 763 761 760 760 759 759 758 757 755 755 754 751 746 742 743 744 741 736 733 732 732 732 732 732 731 730 729 729 728 727 726 725 725 724 724 723 722 722 721 721 721 721 721 721 721 721 720 720 719 719 719 718 718 719 719 719 719 719 719
Wind_Speed
19 20 22 24 26 28 30 30 30 32 32 31 29 18 4 0 5 12 12 9 4 2 1 4 2 3 4 5 7 7 6 7 9 8 7 5 3 1 1 0 1 2 3 2 1 0 2 4 3 2 3 4 6 7 10 9 4 4 5 6 3 2 3 3 2 4 4 5 6 4 0 3 5 1 2 3 4 4 5 5 4 4 3 3 4 1 5
18 20 21 23 25 26 27 28 26 26 26 28 24 10 2 3 5 9 13 9 3 5 2 3 3 4 5 6 8 8 7 8 9 7 5 4 2 1 1 0 1 2 2 4 3 1 2 3 2 2 3 4 7 7 8 9 5 3 4 5 2 1 2 3 2 3 5 6 6 6 5 3 3 1 2 2 4 5 5 3 4 3 3 4 5 3 6
18 19 21 22 24 24 25 25 24 22 22 24 18 5 2 5 3 5 10 8 2 4 2 1 1 4 5 7 8 7 6 6 7 7 5 5 3 2 2 2 2 2 2 4 4 3 3 4 3 3 3 4 6 5 8 8 6 8 4 8 6 3 3 4 5 3 2 1 2 3 2 2 1 1 3 2 3 6 5 4 5 2 4 5 6 5 5
17 18 20 22 23 23 24 23 22 20 20 22 17 5 2 3 1 3 6 5 1 1 2 4 3 3 6 7 6 6 6 6 8 7 5 5 3 1 2 2 2 2 3 3 4 3 3 3 3 3 3 3 4 6 10 7 8 12 3 5 5 4 3 4 7 6 5 6 6 5 3 1 1 4 6 3 2 5 5 5 3 4 6 4 5 7 6
16 17 19 21 22 22 22 21 21 19 19 20 15 4 1 0 1 2 3 4 3 3 4 5 4 4 5 4 4 7 9 7 7 6 3 5 6 3 2 2 2 2 2 1 2 3 3 3 4 4 4 3 4 8 9 7 13 17 8 2 3 4 3 4 8 7 7 8 7 6 4 3 4 3 6 5 0 5 6 4 4 7 8 4 7 9 12
15 16 17 19 20 21 20 20 21 19 18 18 10 1 2 1 2 2 3 2 2 2 4 6 6 7 6 3 5 8 9 7 6 5 4 5 4 3 3 5 4 5 4 2 2 3 4 4 3 3 4 4 5 8 7 8 15 16 8 5 3 5 3 4 7 5 6 6 5 6 5 4 5 4 6 8 5 4 6 5 7 11 8 7 9 12 15
14 15 16 17 17 18 19 20 21 20 18 14 5 2 2 2 2 3 4 2 2 3 6 7 6 7 6 4 5 6 8 9 8 5 4 5 3 3 3 7 7 7 6 3 2 3 3 4 2 1 2 3 4 5 5 7 11 11 8 6 2 4 2 5 5 4 5 5 5 4 2 3 4 5 8 8 5 4 5 5 11 11 6 7 13 14 12
13 14 13 13 14 16 18 19 20 20 18 11 2 0 2 2 2 3 3 3 4 4 6 4 4 5 4 4 4 5 7 8 9 8 6 6 5 3 5 7 6 10 9 3 1 2 1 0 1 1 2 2 2 2 1 3 7 8 6 6 5 3 4 5 3 3 3 4 4 3 4 5 4 5 9 5 0 1 2 3 8 6 0 5 12 12 6
12 12 11 11 13 14 16 18 19 19 16 10 3 3 6 5 6 5 3 3 3 3 3 3 3 3 3 3 3 4 6 8 11 9 8 7 6 6 8 7 5 8 8 4 5 5 4 5 1 1 2 1 2 1 1 1 4 6 4 4 6 4 3 3 4 2 4 3 5 3 2 2 3 5 7 4 2 1 2 2 4 6 7 9 10 7 5
10 11 10 10 11 12 14 16 18 18 15 10 4 4 9 10 9 6 3 3 3 2 2 2 3 3 3 3 5 7 9 10 9 6 7 10 11 11 11 7 4 5 5 6 6 5 1 4 3 3 3 3 3 3 3 3 2 2 1 3 4 2 3 4 2 3 4 5 5 2 3 4 5 5 5 6 5 3 0 3 0 7 12 10 7 7 6
9 10 9 9 10 11 12 14 16 16 14 11 5 5 9 9 6 4 2 3 3 2 2 2 2 3 5 8 10 9 10 11 8 4 5 10 12 12 12 7 3 2 1 2 4 6 4 3 3 4 4 2 2 3 4 4 3 3 1 2 3 2 3 3 1 3 5 7 2 1 1 1 5 6 6 6 5 7 5 2 1 7 8 7 6 5 5
8 8 8 8 9 10 11 12 14 14 12 11 7 5 7 8 6 3 2 3 3 2 2 3 3 6 10 11 9 9 10 11 10 7 6 8 10 10 9 6 4 4 6 6 3 3 4 4 3 1 1 2 2 2 4 4 5 5 4 3 3 2 3 3 1 3 3 4 2 2 4 7 7 5 1 5 8 11 10 4 3 6 8 10 10 9 8
7 7 7 8 8 9 9 10 12 11 11 12 10 6 7 9 5 2 1 3 4 2 2 5 7 9 10 10 9 9 10 11 11 8 6 7 9 8 6 6 5 7 10 8 5 5 2 3 3 3 4 5 4 2 2 5 6 6 5 4 3 1 1 1 2 1 1 1 2 4 7 6 4 4 2 6 8 10 10 6 2 5 11 14 11 8 8
6 6 7 8 7 8 8 9 10 10 10 12 12 9 8 9 5 2 2 2 3 3 3 4 6 8 8 9 9 7 8 9 9 7 6 7 9 7 6 7 7 8 8 5 5 4 1 2 3 3 5 5 4 3 4 4 6 8 8 6 5 3 3 1 2 2 2 2 1 3 4 5 5 2 1 2 3 6 8 4 2 2 8 14 13 10 9
5 7 7 8 7 7 8 9 10 10 10 11 12 10 8 8 7 4 2 2 3 4 2 1 3 7 8 9 8 6 6 6 6 7 7 6 6 5 7 8 10 9 5 2 3 2 2 2 2 2 3 2 2 3 4 4 3 6 8 8 7 6 5 4 3 2 1 4 1 2 1 3 6 5 5 4 5 6 8 7 0 4 3 13 16 13 11
5 7 7 8 8 7 8 9 10 11 10 11 13 13 8 5 7 6 3 2 2 3 2 2 6 8 6 6 7 5 3 4 5 6 5 4 5 6 8 9 9 8 5 3 2 3 3 3 2 1 1 1 1 2 3 3 5 5 4 5 7 6 4 5 5 2 1 5 3 1 2 4 7 8 8 2 6 7 7 6 0 3 4 9 15 15 13
5 7 8 8 8 8 8 9 10 11 11 10 13 14 9 5 7 8 4 1 2 5 4 6 7 5 3 3 4 3 2 3 4 3 3 4 5 7 9 10 8 7 7 4 2 2 3 2 2 2 1 2 1 1 3 2 3 5 6 5 2 2 1 3 5 5 4 4 3 2 2 5 6 7 6 1 6 9 8 2 5 4 6 8 13 15 13
6 7 9 8 8 8 8 9 10 10 11 11 12 13 8 5 7 8 3 1 3 5 3 6 6 2 2 3 4 3 3 3 3 2 4 4 3 5 9 7 5 6 6 4 3 2 2 2 2 2 2 2 0 0 2 2 1 4 5 4 2 2 1 2 4 5 6 5 4 2 2 5 6 6 4 2 7 8 6 5 7 7 9 9 11 15 12
6 8 8 8 7 8 8 9 10 10 10 11 12 12 8 5 7 7 3 2 3 4 4 9 7 5 5 5 5 3 3 4 2 2 4 3 3 8 9 4 2 4 4 3 3 3 2 1 1 2 2 1 1 1 1 1 1 2 3 3 3 3 3 2 2 4 5 4 4 3 3 6 6 3 2 2 4 2 4 6 5 11 13 10 9 12 12
7 7 7 7 7 7 8 10 10 9 10 10 11 12 8 5 7 8 5 2 3 5 8 9 10 10 7 5 4 3 4 4 2 2 2 2 5 8 5 2 3 4 3 3 3 2 1 2 3 1 2 0 0 1 1 2 2 2 1 2 1 2 1 3 3 2 2 2 3 4 4 6 3 3 2 1 3 5 5 3 6 12 13 10 8 9 9
7 7 6 7 7 7 9 10 9 10 10 9 10 10 7 5 7 9 10 9 5 4 5 6 8 11 12 11 11 10 8 7 7 4 3 4 5 4 1 1 4 3 2 2 2 1 1 1 3 1 1 0 1 1 1 1 3 3 2 0 1 1 1 1 3 2 2 2 3 4 5 6 4 2 4 4 5 6 7 9 7 7 8 8 7 7 8
6 6 6 6 6 7 9 9 9 10 10 9 9 8 8 10 10 10 14 13 7 7 11 16 20 25 28 27 25 23 21 21 20 14 7 4 4 2 2 2 3 2 1 1 2 1 1 0 1 1 1 1 1 1 1 1 2 3 2 2 1 2 2 2 3 3 1 3 5 5 5 6 3 1 3 3 4 3 8 13 10 6 6 7 7 7 7
5 5 5 6 7 8 8 9 10 10 10 10 9 8 9 13 12 12 13 11 7 9 16 22 23 23 23 22 20 18 20 24 26 24 16 7 3 3 4 2 1 2 2 1 2 1 0 1 0 0 0 1 0 1 1 1 2 2 1 1 3 3 1 1 3 3 2 3 4 4 5 5 3 6 5 5 6 3 3 10 11 7 7 7 8 9 9
5 5 5 6 7 8 9 9 10 11 11 11 10 9 11 12 10 11 11 6 3 5 9 10 8 9 12 14 15 17 18 19 21 23 22 15 5 3 3 2 1 1 1 3 2 1 1 1 0 1 1 1 1 2 0 2 2 2 0 2 3 3 2 2 1 2 2 1 4 5 5 5 6 7 7 7 7 4 3 7 9 8 8 8 10 11 11
5 5 6 7 8 9 10 10 11 11 12 12 10 10 11 10 7 8 8 5 3 4 5 5 6 9 14 17 19 21 21 18 17 17 19 22 15 8 5 4 2 1 1 3 2 3 1 1 0 1 1 1 1 1 2 3 2 1 1 1 3 2 2 2 2 3 0 2 7 9 5 4 6 6 5 5 7 6 5 5 6 7 8 8 10 12 12
6 7 8 8 9 10 10 10 11 11 12 13 12 12 11 11 9 7 7 6 4 3 5 6 6 8 11 17 23 25 22 18 17 14 16 23 25 21 14 10 6 2 1 1 2 1 1 1 1 2 2 2 2 2 2 3 2 1 2 3 3 1 2 1 1 3 2 1 5 9 6 4 7 7 5 4 5 8 8 6 6 8 8 8 8 9 10
7 7 8 9 10 10 10 9 10 11 12 13 14 13 12 13 12 10 9 7 3 2 4 4 5 10 14 17 24 26 20 15 15 13 11 16 23 24 18 10 6 3 1 0 1 0 2 1 2 3 3 2 2 2 2 3 2 1 2 4 2 1 1 1 0 1 3 3 3 2 1 2 4 5 6 4 3 8 11 9 8 9 9 9 9 7 7
7 7 9 10 11 11 10 10 11 12 12 14 15 14 12 11 11 10 10 8 5 3 4 4 7 13 14 15 21 23 17 14 15 15 15 16 19 21 16 9 6 4 2 2 1 1 2 2 3 3 2 2 2 2 1 0 0 1 3 4 2 3 4 3 3 2 4 6 5 3 4 3 5 5 5 6 1 8 10 9 8 8 8 9 11 10 8
7 8 9 10 11 11 11 12 12 12 12 13 15 13 8 4 4 3 4 6 7 5 4 5 7 8 8 13 21 22 16 13 15 16 16 15 14 16 12 8 6 4 3 3 2 2 3 3 2 2 2 2 2 2 1 1 1 4 5 5 4 4 5 5 5 4 4 5 5 3 3 3 4 4 5 5 0 7 9 8 7 7 7 8 10 11 11
8 9 9 10 11 11 11 12 13 13 12 12 12 8 3 3 6 5 5 2 2 4 3 4 5 4 5 9 13 15 15 16 15 14 13 11 8 9 9 7 5 4 3 2 2 3 3 3 2 3 3 3 3 1 1 2 3 4 5 6 6 5 5 4 5 4 3 5 5 3 3 4 5 4 6 6 3 4 7 7 7 7 8 8 8 8 9
9 10 10 11 12 11 11 12 12 13 13 10 7 3 0 1 3 3 2 3 9 8 3 4 5 5 5 5 6 9 15 17 12 9 9 9 8 8 9 7 4 3 4 3 2 2 3 2 2 3 2 2 3 2 2 3 3 4 4 5 6 6 6 5 4 4 4 6 5 3 2 4 4 3 5 7 7 4 6 6 6 8 10 9 9 9 9
10 11 11 12 12 12 12 12 12 13 13 11 7 7 6 7 9 10 10 14 14 8 2 3 4 3 2 4 6 11 14 13 9 6 5 6 7 7 7 5 3 3 5 4 1 2 3 3 3 4 3 2 2 2 2 3 4 5 5 5 5 6 6 6 5 3 3 5 4 3 4 4 3 3 3 4 6 6 6 5 6 11 13 11 10 10 10
11 12 12 13 13 14 13 12 12 14 15 13 12 12 10 10 11 10 10 10 8 4 2 3 4 3 3 5 8 8 7 6 5 3 3 4 4 4 4 4 3 3 4 4 3 2 3 3 3 3 4 3 2 1 3 5 6 6 5 5 6 5 5 5 4 1 2 5 4 2 3 3 2 4 4 5 7 7 6 5 6 10 12 10 8 8 9
12 13 13 13 14 14 14 13 12 12 11 10 10 8 7 7 8 7 5 4 3 3 3 2 2 3 4 4 4 4 5 4 2 3 2 2 3 4 3 2 1 2 3 3 3 2 2 2 3 3 3 2 2 3 4 5 5 5 6 6 4 3 4 4 3 1 2 4 4 4 4 4 4 5 6 7 7 7 6 6 5 6 8 7 6 6 7
13 13 13 14 14 13 11 9 8 7 6 6 7 6 6 8 7 4 3 3 1 0 2 1 1 3 4 4 3 5 8 6 2 1 1 2 2 3 2 1 1 2 3 2 2 2 3 3 3 2 3 2 3 3 4 4 5 6 6 6 4 5 5 3 3 4 5 4 3 5 5 1 4 5 6 6 2 2 3 5 5 6 7 5 4 5 5
12 12 13 14 12 9 6 4 3 3 3 5 8 9 10 10 6 2 3 4 3 2 1 2 1 2 2 3 3 6 8 6 3 2 1 0 0 1 1 3 1 3 2 2 2 3 4 3 3 2 3 3 4 4 5 6 6 7 7 6 5 6 5 5 5 4 2 2 3 6 6 2 4 4 5 6 6 5 3 5 5 7 7 4 4 4 4
11 12 13 11 7 4 2 1 0 2 5 9 12 12 10 6 3 3 3 4 5 5 2 1 2 3 2 2 3 4 5 4 2 3 2 1 1 2 0 2 2 2 1 2 3 4 3 2 2 3 3 4 5 6 7 7 8 8 7 6 5 5 5 5 5 4 1 3 3 4 5 2 4 5 5 5 5 4 5 5 4 5 7 6 5 4 4
9 10 9 6 4 2 0 1 4 8 11 10 9 8 4 1 2 2 2 3 4 4 3 2 3 3 2 2 3 3 3 2 2 2 2 2 2 2 0 1 2 2 1 3 4 3 2 1 2 4 4 4 5 7 8 7 8 8 6 6 5 5 5 5 4 4 3 1 2 1 2 1 3 4 5 6 6 5 5 5 5 4 6 6 5 4 5
8 7 5 3 2 1 2 5 10 13 11 7 4 2 1 1 1 1 1 2 2 2 2 3 3 3 4 4 5 4 3 2 2 2 1 1 2 2 1 1 2 1 1 3 2 2 2 2 2 3 4 4 5 6 6 6 7 7 6 6 6 6 5 5 5 5 5 5 5 4 2 1 2 4 5 5 5 5 4 5 5 5 5 6 6 6 5
6 5 2 1 2 4 8 13 13 10 6 3 1 0 1 0 1 1 1 1 2 1 2 3 3 3 5 5 4 4 4 4 2 2 1 1 2 1 0 1 2 1 1 3 2 1 2 2 2 2 3 4 4 6 7 6 7 6 5 5 5 5 5 5 4 3 3 3 3 3 2 1 2 3 5 5 5 5 4 5 6 6 6 7 8 8 7
5 4 2 3 7 11 14 13 8 3 1 1 0 1 0 1 1 1 1 1 2 1 2 2 2 2 3 4 3 3 4 4 3 1 1 1 1 1 0 1 1 0 1 3 2 0 1 1 1 2 3 4 6 7 5 3 3 2 3 4 4 4 5 5 5 5 4 4 3 3 3 2 2 3 4 5 5 5 5 5 6 7 9 9 9 9 11
5 6 7 10 12 12 9 5 2 1 1 0 0 1 1 1 1 1 1 2 2 1 1 2 2 2 3 3 3 3 4 3 1 1 1 0 1 1 1 2 1 1 2 3 1 1 0 0 1 1 4 4 6 6 4 4 4 4 6 6 5 5 6 6 5 5 5 5 4 4 5 4 4 2 1 5 6 6 6 6 7 9 12 14 11 12 18
7 7 7 7 6 4 2 1 1 0 0 0 0 1 1 1 1 1 1 1 1 1 1 1 2 2 3 3 2 2 4 3 1 0 1 1 1 1 1 1 0 1 3 2 1 2 1 0 1 3 4 4 4 5 5 5 5 5 6 6 6 6 7 6 5 5 6 6 5 4 4 5 5 6 4 1 6 6 7 10 12 13 15 15 13 15 23
4 3 2 2 2 1 0 1 1 0 0 1 0 0 1 1 0 1 2 1 1 1 2 2 2 2 3 3 2 2 3 2 1 1 1 1 0 1 1 2 2 1 1 1 2 1 1 1 1 2 3 3 4 5 5 5 5 5 5 5 6 7 7 6 5 5 6 7 6 6 6 5 6 6 6 1 4 6 7 10 12 13 14 14 13 17 23
2 1 0 1 2 1 1 0 1 1 1 2 2 2 2 1 1 2 3 2 1 1 3 2 2 3 3 2 1 1 2 2 1 0 1 1 1 0 1 2 2 1 1 1 1 2 2 1 2 3 3 3 3 4 4 4 4 4 4 4 6 6 6 5 5 5 4 4 5 4 4 4 3 3 3 1 3 6 8 8 7 8 10 11 11 15 21
1 1 1 1 1 1 0 0 0 1 2 2 2 2 3 3 3 3 3 1 1 2 3 2 1 2 3 2 1 1 1 1 1 1 1 1 1 1 2 0 1 2 1 1 1 1 2 2 1 1 3 4 4 4 4 4 4 4 4 4 5 6 5 5 5 4 3 4 4 3 3 3 0 3 3 1 2 4 6 7 8 9 11 12 12 15 19
1 1 0 1 1 1 1 1 2 2 2 2 3 3 4 4 3 3 2 2 1 2 2 1 1 0 1 1 2 2 2 0 1 2 1 1 0 2 1 2 1 1 1 1 1 3 3 2 1 1 2 3 3 4 4 4 4 4 4 4 4 5 5 5 5 4 5 5 4 4 5 5 2 4 4 2 4 5 6 8 10 10 11 12 13 15 19
1 0 0 1 1 2 2 2 3 3 3 3 4 5 4 3 2 3 3 2 1 3 3 2 1 1 1 1 2 2 2 1 1 2 1 0 0 1 2 2 0 1 1 1 3 3 1 1 1 0 1 1 2 3 4 4 5 5 4 4 4 4 5 5 5 5 4 3 3 4 4 3 0 3 3 3 5 6 7 8 10 11 10 11 12 13 16
1 0 1 1 1 2 3 3 3 4 4 4 4 4 3 3 2 3 3 2 2 3 3 2 1 2 2 2 1 1 1 1 1 2 1 1 0 0 0 1 1 1 1 3 4 3 1 2 2 1 2 3 3 3 3 4 4 4 3 3 4 4 3 4 6 7 6 4 3 3 1 1 1 1 2 2 4 6 6 7 9 11 11 12 13 14 16
1 1 1 2 2 3 3 3 3 3 4 4 4 4 4 4 3 3 2 1 2 3 3 2 1 1 1 1 1 1 1 1 1 1 1 1 1 1 0 1 1 2 2 3 4 3 2 1 1 1 3 4 3 3 3 4 3 3 3 3 3 4 4 5 7 9 8 7 5 3 0 1 1 2 1 2 4 6 5 6 8 9 11 12 12 13 15
1 1 2 3 3 3 3 3 3 4 5 5 5 4 4 4 4 3 2 1 2 3 3 2 1 1 2 2 1 0 0 0 1 0 0 0 1 1 1 1 3 3 4 4 5 4 2 1 2 1 2 4 4 3 3 4 3 2 4 5 4 4 5 7 8 8 8 7 6 5 3 3 3 3 3 4 4 4 4 6 7 7 8 10 11 12 14
2 2 2 3 4 4 4 4 4 4 5 6 5 4 3 4 4 3 2 1 1 1 1 2 1 2 2 1 1 1 0 0 0 0 0 1 1 1 1 3 4 3 2 4 6 5 2 1 2 2 2 2 4 4 4 4 3 1 2 4 5 4 5 6 8 8 7 6 6 6 6 5 4 4 5 4 3 2 4 6 7 7 8 10 11 12 13
Wind_Direction
337 343 342 343 347 346 346 349 350 350 352 354 357 355 330 31 296 285 303 319 314 83 320 280 261 237 253 257 258 262 262 264 273 280 279 268 257 252 249 255 285 259 273 299 311 57 266 244 233 255 268 279 270 287 330 324 258 166 167 204 203 92 99 132 243 298 303 296 318 340 255 102 87 100 199 149 148 148 144 163 160 129 148 134 90 120 267
336 339 340 342 345 344 344 347 350 354 1 0 357 355 312 310 272 283 323 339 138 152 233 252 254 269 279 282 275 270 263 260 266 270 272 273 255 223 244 239 282 263 282 301 277 228 274 255 253 275 248 270 284 295 353 360 327 269 202 179 162 113 128 114 86 4 344 337 348 349 344 29 93 203 249 208 176 125 93 87 89 96 191 161 125 192 258
329 333 339 341 342 342 341 344 349 355 0 358 357 353 259 313 255 249 316 334 148 175 207 177 283 306 323 315 300 290 274 267 276 278 281 284 248 193 213 213 212 254 288 295 278 241 227 238 273 280 247 279 294 318 360 4 330 303 225 149 122 135 152 109 114 140 192 217 276 273 278 333 329 286 308 276 157 125 111 103 89 100 197 165 145 190 247
326 332 337 337 337 337 338 341 345 351 356 354 350 333 257 337 320 267 311 342 20 319 14 46 19 348 346 326 302 300 301 304 308 300 298 318 319 192 213 228 219 267 278 277 288 278 231 242 303 298 278 293 302 338 350 345 333 332 328 131 96 103 134 128 136 156 179 188 216 219 168 104 290 296 303 296 119 115 116 111 130 167 168 181 199 174 168
324 330 333 332 331 332 337 340 340 346 353 350 343 321 218 338 304 315 337 330 338 8 30 29 9 327 323 312 293 308 312 309 315 316 320 342 349 351 293 276 199 227 258 243 266 289 287 291 305 297 297 312 328 343 350 352 348 346 338 333 38 94 146 160 148 167 197 191 204 205 158 161 203 244 282 277 226 119 132 154 180 150 136 203 231 172 159
321 328 329 327 328 331 337 342 340 343 347 344 340 278 221 263 275 4 18 314 306 13 347 338 333 317 314 299 282 301 310 308 313 319 313 321 354 38 330 303 269 251 252 233 242 277 298 292 286 314 342 359 357 347 349 357 354 351 342 329 48 115 179 197 157 179 209 198 220 215 176 182 203 218 257 268 273 168 167 192 171 149 153 197 201 179 173
320 326 325 326 329 333 341 346 342 342 345 344 336 216 270 304 298 354 12 318 281 300 301 307 316 316 316 300 285 300 309 308 303 298 306 316 346 52 328 299 309 311 291 257 235 245 263 281 279 34 21 22 28 8 347 340 344 353 352 327 5 102 225 223 152 150 189 199 246 252 214 202 203 221 245 261 268 199 194 199 176 169 190 189 175 178 183
320 324 325 329 335 339 346 349 344 344 350 355 10 196 347 346 324 344 346 299 278 273 284 303 316 310 299 274 272 282 290 307 321 316 305 297 305 334 305 295 338 338 313 298 333 291 205 114 279 108 82 58 61 66 36 322 329 347 356 327 344 26 263 240 130 124 217 214 210 245 276 252 221 239 250 252 248 203 211 179 170 164 107 150 154 164 194
317 321 328 335 341 345 349 351 349 349 357 7 15 10 4 337 313 325 315 281 284 273 286 333 332 305 270 247 266 286 298 333 348 331 308 304 316 330 317 315 1 345 322 356 15 359 72 102 167 165 103 137 144 146 180 291 333 345 357 332 344 8 300 308 74 122 261 243 185 194 313 337 333 292 256 214 153 231 252 208 174 146 122 118 128 152 202
316 321 331 340 343 348 350 349 349 354 7 18 14 352 359 345 327 334 323 269 281 287 293 314 298 274 251 276 310 322 324 340 354 339 319 332 342 340 328 328 13 10 359 18 356 328 73 128 183 185 177 205 181 165 194 205 243 307 345 318 322 29 360 335 73 147 266 261 210 195 50 30 336 283 220 190 172 152 65 324 271 139 134 134 156 186 188
321 326 336 344 345 347 349 349 350 358 12 23 13 331 346 349 334 334 316 264 268 293 290 260 234 270 302 316 325 329 328 336 349 342 313 324 334 331 323 323 8 29 310 291 302 288 266 247 227 185 161 193 227 195 195 211 233 231 202 272 289 24 29 310 207 146 266 267 239 73 33 250 259 244 201 185 167 131 107 23 111 134 130 129 146 145 116
328 332 341 348 346 346 349 351 352 357 8 14 2 318 329 342 327 306 295 277 283 333 326 283 277 304 314 324 334 332 327 328 329 318 302 310 319 319 319 331 3 342 297 286 317 328 295 293 298 305 34 2 303 242 207 219 240 240 209 200 264 339 20 301 276 126 241 274 70 98 226 225 240 262 183 120 117 112 102 78 95 123 112 100 101 106 116
330 336 344 348 346 344 349 353 351 352 359 5 359 331 330 340 323 276 293 293 277 302 330 300 300 312 323 335 339 327 322 324 320 314 309 309 310 319 346 6 359 325 308 311 13 44 348 323 343 341 343 347 343 328 244 225 225 235 220 191 220 270 74 291 293 151 223 323 112 192 235 248 277 310 49 93 96 97 88 52 16 134 125 115 110 117 131
333 343 349 349 345 344 350 352 348 346 354 360 356 342 336 339 325 291 311 293 269 300 322 302 310 326 335 338 337 329 328 332 331 329 325 309 305 325 7 1 328 305 302 322 29 55 37 356 9 356 346 354 2 345 309 267 226 218 212 207 207 176 137 174 283 258 188 148 193 248 264 286 307 328 131 136 130 129 121 108 293 254 128 123 124 131 136
340 349 350 346 344 346 349 350 347 346 350 356 353 345 334 332 330 320 295 279 293 295 266 224 346 349 341 333 334 335 332 336 338 328 313 300 306 339 2 342 315 304 312 358 57 60 60 67 54 17 357 15 13 311 306 319 290 230 214 218 213 188 175 182 204 252 127 115 76 338 346 257 265 249 227 192 152 148 133 121 154 290 163 137 135 140 143
340 347 348 345 343 343 345 347 346 342 344 352 351 347 345 351 351 341 308 287 300 269 234 31 359 338 320 310 318 327 328 331 334 323 310 316 328 337 340 327 312 318 345 21 92 86 75 95 130 133 190 183 154 274 286 327 326 297 270 247 225 205 183 156 161 216 142 115 127 170 168 236 249 246 258 242 130 123 101 93 162 260 198 153 140 142 150
339 342 343 341 338 337 340 345 345 341 343 348 346 343 349 21 7 345 313 255 269 263 291 356 355 326 307 312 317 322 314 312 326 320 300 318 335 336 331 324 324 352 16 21 25 68 90 122 129 113 213 232 127 231 280 321 336 323 333 327 267 210 142 150 168 197 183 141 148 188 207 246 246 245 263 260 105 101 99 130 251 218 185 176 152 149 157
334 337 337 335 333 336 341 343 344 342 340 341 340 337 339 10 5 344 315 273 279 257 293 7 9 319 291 308 300 301 316 321 332 316 294 301 346 334 320 319 337 2 13 27 26 27 87 155 150 143 212 266 74 188 285 331 324 300 316 322 336 27 22 205 190 191 184 173 183 200 225 238 235 242 247 125 81 79 118 205 230 173 170 191 164 151 157
326 331 334 334 335 340 341 341 343 344 339 339 341 337 338 13 12 355 331 268 255 248 314 346 334 284 281 303 298 305 331 317 295 298 305 320 337 315 300 297 5 352 352 39 45 16 8 289 246 140 157 285 350 123 242 303 271 289 321 328 348 23 3 314 211 190 186 175 175 192 246 242 217 204 215 135 105 132 203 214 186 154 165 186 167 153 158
326 331 335 337 340 342 343 340 340 341 340 341 342 338 339 17 16 358 343 304 271 272 288 289 271 264 281 299 290 303 334 318 285 314 324 302 322 328 322 330 357 349 360 37 34 18 27 327 310 18 107 191 333 112 144 305 307 297 315 332 3 72 20 306 273 219 168 130 152 177 223 253 233 116 72 82 175 203 203 165 150 157 163 168 159 157 160
336 337 335 338 340 340 341 340 340 341 340 341 343 336 323 325 343 342 336 329 308 275 282 285 281 283 282 275 268 271 273 263 258 284 310 284 301 338 18 283 312 332 355 21 26 19 44 293 292 315 89 281 348 99 135 323 318 297 273 55 76 135 160 254 277 268 129 143 199 199 216 259 269 196 196 199 184 182 156 134 145 168 161 152 151 159 159
341 335 332 339 343 342 342 340 339 340 337 336 339 331 306 300 312 328 330 320 289 257 278 289 291 287 281 278 274 267 259 257 256 256 262 280 283 250 213 255 286 298 325 49 83 18 337 250 271 326 355 326 352 59 165 181 291 298 327 40 156 207 203 210 243 268 237 199 225 243 257 273 295 131 186 159 120 136 146 141 147 169 167 154 149 150 152
348 344 344 348 345 341 340 339 339 339 337 335 336 324 305 303 310 326 328 312 278 270 276 276 279 282 280 279 281 278 271 264 257 248 239 238 278 266 230 233 265 315 347 59 140 158 241 205 197 53 263 262 55 51 341 261 235 255 313 319 251 239 242 177 223 267 296 242 247 287 304 306 24 73 87 91 78 56 139 142 146 161 165 155 148 150 153
353 350 350 348 340 335 334 334 337 336 332 331 327 314 303 300 310 334 334 306 266 295 284 267 264 271 275 286 301 305 292 273 262 253 238 223 234 285 246 217 162 69 329 279 245 111 107 226 187 80 237 237 137 108 193 259 250 222 226 310 290 289 358 31 312 327 18 274 290 318 328 329 11 56 71 73 74 73 131 153 158 161 159 155 149 147 148
346 344 340 334 330 329 329 333 337 337 332 329 323 312 302 292 297 328 328 298 278 307 300 286 269 269 285 301 304 300 293 284 282 269 235 216 218 233 249 273 298 139 223 281 338 49 52 281 122 128 237 240 164 155 198 220 239 221 192 260 273 292 350 11 316 311 233 217 291 305 298 314 360 29 55 64 73 84 103 144 156 142 139 148 147 143 144
333 333 330 327 324 324 328 335 340 339 334 330 324 315 302 290 288 297 299 294 286 266 272 286 283 286 307 309 299 297 301 297 291 276 234 218 221 226 239 268 286 270 207 343 17 76 154 242 175 180 223 224 176 180 208 222 235 231 227 236 227 249 340 328 271 313 309 239 300 313 315 352 9 10 19 48 91 99 94 102 121 123 129 138 137 137 143
323 324 323 322 321 320 323 332 337 336 334 332 328 318 300 288 285 283 279 280 284 273 277 278 289 307 309 297 293 302 309 301 292 285 259 237 227 223 229 243 255 248 204 232 313 216 162 211 227 205 215 221 193 196 230 232 225 202 247 254 233 149 294 278 149 342 301 238 234 264 288 321 321 330 346 357 91 111 107 112 124 131 140 138 125 112 120
321 322 318 317 319 321 322 324 327 329 329 329 328 322 306 292 289 284 274 261 247 268 303 288 286 301 303 295 300 310 311 300 298 298 289 269 239 221 220 225 225 227 191 171 228 216 173 210 229 211 208 206 206 253 286 211 100 247 239 239 212 178 190 191 173 201 241 246 239 194 161 218 258 275 309 314 28 110 110 121 131 135 143 141 132 126 124
321 320 318 317 322 326 327 326 326 326 327 331 334 333 331 346 358 331 270 244 235 243 287 295 281 288 301 304 308 312 311 303 298 292 286 274 236 212 212 216 211 204 178 164 182 207 215 227 226 226 225 192 192 268 297 145 222 251 233 217 214 208 195 182 180 201 246 268 264 220 189 236 266 294 321 315 80 114 109 112 120 125 135 136 134 137 138
322 320 320 320 322 325 327 327 328 328 332 338 338 331 336 59 50 63 105 131 283 288 293 296 289 294 305 299 297 300 302 299 289 275 269 266 235 205 203 205 195 180 170 176 182 199 232 251 238 239 231 171 157 207 222 186 232 256 239 219 217 225 233 214 187 191 257 290 287 251 231 261 285 322 354 354 11 101 111 116 124 128 127 124 123 128 138
317 315 316 316 316 319 321 322 323 326 331 339 343 333 167 81 15 22 82 337 332 332 310 273 283 297 293 266 254 278 288 286 276 260 251 244 233 217 205 198 189 173 171 185 202 213 230 242 252 271 270 161 150 167 182 196 248 270 258 235 216 211 228 239 225 212 253 286 302 309 297 306 326 4 20 9 4 38 97 117 123 114 109 110 118 127 143
312 311 312 311 310 311 312 313 316 317 316 312 292 268 266 282 298 302 298 300 310 318 300 278 294 300 293 280 280 283 279 268 259 257 240 212 204 209 207 203 199 181 175 175 198 233 222 209 228 270 270 206 166 176 193 213 242 256 254 248 236 220 217 234 247 262 295 307 323 343 331 332 11 78 75 29 21 42 74 91 100 103 102 101 105 114 127
308 308 307 305 305 306 306 308 308 305 302 296 282 273 279 293 303 306 299 290 287 270 236 286 304 288 284 303 302 298 289 264 236 224 221 197 177 181 203 204 188 183 187 185 191 225 224 196 204 246 250 206 164 180 227 233 237 244 251 254 247 229 215 223 229 233 335 312 305 274 249 247 162 116 96 59 40 43 66 83 92 99 104 106 106 110 114
309 309 308 307 309 311 310 309 305 298 293 288 283 286 304 317 319 312 278 241 235 248 248 261 293 284 290 304 300 309 323 308 237 183 215 224 170 159 190 208 175 188 209 200 198 234 243 197 192 233 252 215 173 204 238 246 246 249 260 263 244 188 186 225 241 210 230 263 281 283 253 205 131 90 71 53 24 13 41 69 82 92 98 108 120 126 128
310 313 315 317 319 319 315 307 293 283 278 271 271 291 315 316 318 320 261 218 185 294 270 250 259 293 314 320 299 313 330 329 310 216 233 212 164 160 172 139 127 215 216 192 187 222 224 197 188 219 241 220 205 218 236 250 260 265 266 258 214 161 160 207 248 245 236 238 280 312 305 149 111 97 96 105 129 286 23 55 72 92 95 108 138 141 140
314 320 322 323 323 321 317 304 264 247 264 277 285 301 310 302 295 282 244 240 229 227 281 322 276 272 317 321 295 316 334 336 327 316 302 181 355 312 119 113 161 236 209 165 202 224 220 197 184 211 237 226 221 227 221 219 235 252 253 238 207 178 172 188 201 213 253 303 320 307 297 256 145 134 128 135 162 184 145 96 93 104 108 125 157 148 123
323 328 326 325 328 323 316 337 315 285 296 298 299 303 304 296 257 200 210 228 222 214 219 317 262 242 266 276 272 310 330 325 319 337 1 36 320 285 181 132 216 232 185 200 224 217 204 197 198 218 233 226 226 232 226 214 219 230 231 221 207 190 186 192 189 182 262 318 307 296 291 244 156 141 138 144 153 153 142 139 142 137 137 150 171 162 134
333 333 327 326 335 336 322 16 341 319 310 311 312 305 291 226 167 199 206 199 203 200 191 225 248 233 207 233 257 283 304 308 318 330 358 11 318 287 248 142 222 212 206 244 230 184 153 183 207 219 239 246 239 237 234 225 222 223 215 201 196 194 192 190 172 152 156 234 259 341 19 64 159 168 165 162 165 170 168 167 169 159 151 160 169 155 137
344 335 323 308 305 271 282 317 324 319 313 315 327 313 252 177 160 238 215 180 189 195 190 225 245 214 187 218 260 258 227 234 318 324 347 14 316 294 5 333 275 243 243 264 245 154 158 206 205 215 254 272 262 254 257 248 232 222 206 192 192 191 186 180 167 155 160 177 187 176 132 100 184 210 207 188 175 172 164 160 169 175 172 170 167 154 143
355 339 314 281 289 296 304 314 320 320 314 311 326 281 260 181 156 205 217 220 236 220 189 211 232 210 195 214 264 271 225 216 247 252 175 167 273 273 357 285 267 246 251 269 272 135 171 200 184 204 246 273 283 284 281 259 230 213 194 183 178 163 149 145 143 144 149 159 180 192 190 155 146 181 197 196 185 172 164 168 184 191 188 180 173 166 157
360 345 313 301 306 306 309 315 319 315 292 282 253 264 271 226 226 230 219 245 259 227 180 201 251 266 216 209 227 262 258 246 243 225 151 155 214 218 193 253 263 25 282 260 261 278 210 202 169 216 245 273 295 298 290 240 196 167 119 116 113 104 102 101 92 90 91 80 49 24 25 48 91 146 174 183 184 183 184 185 186 190 197 201 190 164 146
319 307 299 301 303 304 308 316 311 235 239 341 344 306 275 237 247 250 209 229 259 261 180 199 246 281 274 241 214 233 259 267 290 11 351 238 183 173 248 270 297 29 255 248 240 57 320 315 16 285 272 288 311 326 3 67 86 77 71 71 68 68 70 67 58 56 70 84 79 43 32 41 45 45 152 185 187 186 187 190 190 193 204 211 198 156 139
291 287 292 298 297 292 300 312 257 189 102 73 55 330 293 255 246 245 227 238 284 315 302 267 273 287 296 298 283 264 274 282 323 35 271 243 148 100 315 300 297 246 256 266 47 49 350 271 205 244 258 282 325 351 13 35 55 64 63 57 52 52 52 51 46 35 35 46 56 52 47 54 50 41 40 183 202 195 188 194 199 202 208 210 191 154 148
303 274 260 277 270 220 122 328 300 159 216 242 181 241 276 271 250 257 255 264 328 291 260 264 296 311 307 305 304 293 291 300 355 29 274 259 181 139 251 255 249 261 305 10 38 11 276 256 267 287 301 329 355 4 9 17 28 39 40 38 39 42 39 37 35 26 15 16 23 30 39 53 66 66 62 75 225 226 218 211 207 204 204 200 175 154 160
328 266 141 348 312 277 106 22 297 248 241 235 209 217 255 275 293 276 259 214 169 239 265 265 278 292 294 288 276 286 303 322 353 341 266 295 352 298 239 238 251 302 19 50 22 317 304 305 324 326 315 312 331 360 16 19 20 28 33 27 23 25 27 26 24 19 7 359 5 15 23 34 67 98 93 84 245 244 239 230 215 194 187 183 165 154 165
282 251 94 57 317 283 135 96 271 236 222 223 217 223 246 253 248 255 265 228 183 242 271 275 268 285 298 304 296 273 276 312 315 276 240 85 40 270 256 261 360 350 14 85 160 262 260 243 231 287 286 292 321 5 16 7 12 33 45 31 8 3 6 9 8 2 346 345 357 360 338 327 281 154 147 162 244 244 232 220 205 186 177 177 171 164 167
267 278 61 89 302 280 234 207 227 233 235 248 253 252 260 263 259 269 295 306 280 281 290 279 199 233 285 291 294 285 266 221 286 283 274 112 189 270 335 40 28 329 338 337 252 244 245 241 162 151 256 294 337 7 2 354 6 21 24 14 4 359 353 348 344 337 329 333 340 333 320 316 266 176 169 205 244 235 220 210 205 198 190 188 185 175 170
277 294 182 156 237 247 231 239 261 264 260 266 270 268 270 282 300 299 291 294 339 352 340 327 326 328 286 216 227 270 284 306 295 279 273 120 133 318 16 38 322 289 343 293 261 255 259 289 305 235 238 291 353 14 1 349 351 354 353 355 356 349 341 332 320 308 303 312 314 311 323 344 281 200 215 253 265 255 237 220 215 211 202 192 185 180 175
258 279 231 228 255 263 261 275 293 291 280 279 288 298 315 337 328 301 304 342 6 343 318 297 286 285 270 237 212 279 302 315 298 281 295 28 29 239 140 151 229 257 234 240 250 259 233 214 227 320 338 336 356 12 353 329 319 315 315 315 315 317 325 323 311 301 294 289 289 285 282 64 17 293 249 248 268 272 257 230 221 219 211 197 188 185 184
235 236 221 225 256 285 295 302 308 305 309 320 326 324 329 333 320 298 304 357 349 327 321 329 339 295 284 327 2 351 315 307 309 309 318 325 284 275 187 169 230 264 272 264 270 284 275 226 128 27 339 329 343 355 336 318 304 274 251 260 288 310 314 304 303 303 300 298 301 306 232 135 307 309 271 244 265 268 253 232 225 222 215 208 199 192 190
231 236 225 223 232 256 287 308 309 300 301 306 305 302 305 307 294 269 235 168 28 11 357 332 328 14 27 15 357 326 273 308 315 309 326 320 325 345 352 232 236 264 299 305 294 278 260 193 122 108 318 329 339 333 315 312 309 257 219 225 251 285 294 293 298 304 304 298 296 296 284 268 268 270 270 275 281 276 261 253 247 232 216 213 211 206 201
221 235 248 243 235 237 252 264 270 273 272 269 271 278 285 283 277 263 212 135 74 9 292 266 291 60 59 359 285 297 344 322 272 85 29 311 284 261 239 241 240 241 267 289 288 282 273 203 160 174 215 301 309 298 296 311 323 311 214 225 238 248 259 276 290 298 294 279 268 261 251 242 240 247 256 261 264 261 254 255 253 241 225 221 221 218 213